This is the latest recevied weather packets stored in our database for station/object OM6ACB-6. If no packets are shown the sender has not sent any weather packets the latest 10 day(s).
| Time | Temp. | Humidity | Pressure | Rain* | Wind** | Luminosity | Snow |
|---|---|---|---|---|---|---|---|
| 1788591961 | 18.33° C | 23% | 1021.4 hPa | 0 mm | - | - | - |
| 1788591361 | 18.33° C | 23% | 1021 hPa | 0 mm | - | - | - |
| 1788590761 | 18.89° C | 23% | 1021.4 hPa | 0 mm | - | - | - |
| 1788590160 | 17.78° C | 24% | 1021.5 hPa | 0 mm | - | - | - |
| 1788589560 | 18.89° C | 23% | 1021.3 hPa | 0 mm | - | - | - |
| 1788588960 | 17.78° C | 24% | 1021 hPa | 0 mm | - | - | - |
| 1788588359 | 17.78° C | 24% | 1020.9 hPa | 0 mm | - | - | - |
| 1788587759 | 17.78° C | 24% | 1020.6 hPa | 0 mm | - | - | - |
| 1788587159 | 17.78° C | 24% | 1020.6 hPa | 0 mm | - | - | - |
| 1788586559 | 17.78° C | 24% | 1020.5 hPa | 0 mm | - | - | - |
| 1788585958 | 17.78° C | 24% | 1020.1 hPa | 0 mm | - | - | - |
| 1788585358 | 17.22° C | 24% | 1019.9 hPa | 0 mm | - | - | - |
| 1788584758 | 17.78° C | 24% | 1020 hPa | 0 mm | - | - | - |
| 1788584157 | 18.33° C | 23% | 1019.5 hPa | 0 mm | - | - | - |
| 1788583557 | 18.33° C | 23% | 1019.2 hPa | 0 mm | - | - | - |
| 1788582957 | 18.33° C | 23% | 1018.9 hPa | 0 mm | - | - | - |
| 1788582357 | 18.33° C | 23% | 1018.7 hPa | 0 mm | - | - | - |
| 1788581756 | 18.33° C | 23% | 1018.4 hPa | 0 mm | - | - | - |
| 1788581156 | 17.78° C | 24% | 1018.1 hPa | 0 mm | - | - | - |
| 1788580556 | 17.22° C | 24% | 1017.9 hPa | 0 mm | - | - | - |
| 1788579955 | 17.78° C | 24% | 1017.9 hPa | 0 mm | - | - | - |
| 1788579355 | 17.78° C | 24% | 1018 hPa | 0 mm | - | - | - |
| 1788578755 | 17.78° C | 24% | 1018.1 hPa | 1.02 mm | - | - | - |
| 1788578155 | 17.78° C | 24% | 1018.1 hPa | 1.02 mm | - | - | - |
| 1788577554 | 17.22° C | 24% | 1018.1 hPa | 1.27 mm | - | - | - |
* Rain latest hour (hover to see other rain measurements)
** Current wind speed in m/s (hover to see current wind gust speed)